Flag for Italy Weather past 2 weeks in Palermo, Italy

Now
55 °F

Passing clouds.


Feels Like: 50 °F
Forecast: 51 / 59 °F
Wind: 22 mph from Southwest

Location: Palermo / Punta Raisi

Current Time: Jan 30, 2015 at 10:52:08 PM

Latest Report: Jan 30, 2015 at 9:50 PM


Visibility: N/A

Pressure: 29.39 "Hg

Humidity: 82%

Dew point: 50 °F

Location of PalermoLocation

Historic Weather in Palermo — Graph

°F

Palermo temperature yesterday

Maximum temperature yesterday: 55 °F (at 12:20 PM)
Minimum temperature yesterday: 52 °F (at 6:50 AM)
Average temperature yesterday: 54 °F

Past Weeks' High & Low Weather Summary

 TemperatureHumidityPressure
High68 °F (Jan 16, 11:50 AM)94% (Jan 15, 10:20 PM)30.24 "Hg (Jan 15, 10:20 PM)
Low45 °F (Jan 28, 1:50 PM)35% (Jan 16, 10:50 AM)29.30 "Hg (Jan 30, 12:50 PM)
Average55 °F75%29.85 "Hg
* Reported Jan 15 9:20 PM — Jan 30 9:20 PM, Palermo, Weather by CustomWeather, © 2014

Note: Actual official high and low records may vary slightly from our data, if they occured in-between our weather recording intervals... More about our weather records

Advertising

Palermo weather history for previous 24 hours

 ConditionsComfort  
Time TempWeatherWind HumidityBarometerVisibility
9:20 PM
Jan 30
57 °FPassing clouds.23 mph77%29.36 "HgN/A
8:50 PM55 °FPassing clouds.21 mph82%29.39 "HgN/A
8:20 PM57 °FPassing clouds.24 mph82%29.39 "HgN/A
7:50 PM57 °FPassing clouds.23 mph77%29.36 "HgN/A
7:20 PM57 °FPassing clouds.23 mph77%29.36 "HgN/A
6:50 PM55 °FLight rain. Passing clouds.17 mph82%29.36 "HgN/A
6:20 PM55 °FRain. Passing clouds.22 mph88%29.36 "Hg5 mi
5:50 PM57 °FLight rain. Passing clouds.26 mph82%29.33 "Hg5 mi
5:20 PM59 °FLight rain. Partly sunny.24 mph82%29.33 "HgN/A
4:50 PM59 °FPartly sunny.20 mph77%29.30 "HgN/A
4:20 PM59 °FLight rain. Partly sunny.25 mph82%29.30 "HgN/A
3:50 PM57 °FLight rain. Scattered clouds.31 mph94%29.30 "Hg5 mi
3:20 PM59 °FRain. Partly sunny.32 mph88%29.30 "Hg4 mi
2:50 PM59 °FBroken clouds.30 mph88%29.30 "Hg6 mi
2:20 PM59 °FLight rain. Partly sunny.26 mph82%29.30 "Hg5 mi
1:50 PM57 °FLight rain. Partly sunny.26 mph88%29.30 "Hg4 mi
1:20 PM57 °FLight rain. Partly sunny.30 mph82%29.30 "HgN/A
12:50 PM57 °FLight rain. Partly sunny.29 mph82%29.30 "Hg6 mi
12:20 PM57 °FLight rain. Partly sunny.26 mph77%29.33 "Hg6 mi
11:50 AM59 °FScattered clouds.30 mph72%29.33 "HgN/A
11:20 AM59 °FScattered clouds.33 mph72%29.33 "HgN/A
10:50 AM59 °FScattered clouds.35 mph72%29.33 "HgN/A
10:20 AM59 °FScattered clouds.33 mph72%29.36 "HgN/A
9:50 AM57 °FScattered clouds.32 mph77%29.36 "HgN/A
9:20 AM57 °FScattered clouds.33 mph72%29.39 "HgN/A
8:50 AM57 °FPassing clouds.31 mph77%29.39 "HgN/A
8:20 AM57 °FPassing clouds.29 mph72%29.39 "HgN/A
7:50 AM57 °FPassing clouds.24 mph72%29.42 "HgN/A
7:20 AM57 °FPassing clouds.22 mph67%29.42 "HgN/A
6:50 AM57 °FPassing clouds.24 mph67%29.42 "HgN/A
6:20 AM57 °FPassing clouds.28 mph72%29.45 "HgN/A
5:50 AM57 °FPassing clouds.33 mph67%29.45 "HgN/A
5:20 AM57 °FPassing clouds.33 mph72%29.45 "HgN/A
4:50 AM55 °FPassing clouds.32 mph77%29.45 "HgN/A
4:20 AM55 °FPassing clouds.32 mph82%29.47 "HgN/A
3:50 AM55 °FPassing clouds.32 mph82%29.47 "HgN/A
3:20 AM55 °FPassing clouds.33 mph82%29.50 "HgN/A
2:50 AM55 °FPassing clouds.30 mph82%29.53 "HgN/A
2:20 AM55 °FPassing clouds.30 mph77%29.53 "HgN/A
1:50 AM55 °FPassing clouds.28 mph82%29.56 "HgN/A
1:20 AM55 °FPassing clouds.25 mph82%29.59 "HgN/A
12:50 AM55 °FPassing clouds.25 mph82%29.59 "HgN/A
12:20 AM55 °FPassing clouds.21 mph82%29.62 "HgN/A
11:50 PM
Jan 29
55 °FPassing clouds.18 mph88%29.65 "HgN/A
11:20 PM55 °FPassing clouds.20 mph88%29.65 "HgN/A
10:50 PM55 °FPassing clouds.20 mph88%29.68 "HgN/A
10:20 PM54 °FPassing clouds.15 mph94%29.68 "HgN/A
Weather by CustomWeather, © 2014

See weather overviewHow to use our weather pages